Time,TemperatureF,DewpointF,PressureIn,WindDirection,WindDirectionDegrees,WindSpeedMPH,WindSpeedGustMPH,Humidity,HourlyPrecipIn,Conditions,Clouds,dailyrainin,SoftwareType,DateUTC
2013-02-28 00:00:00,37.2,35.6,30.21,NNW,328,4.0,5.0,94,0.00,,,0.00,WeatherCatV1.13B119,2013-02-28 08:00:00,
2013-02-28 00:05:00,37.2,35.6,30.21,NW,323,2.0,4.0,94,0.00,,,0.00,WeatherCatV1.13B119,2013-02-28 08:05:00,
2013-02-28 00:10:00,37.1,35.5,30.21,NW,326,2.0,8.0,94,0.00,,,0.00,WeatherCatV1.13B119,2013-02-28 08:10:00,
2013-02-28 00:15:00,37.1,35.5,30.21,WNW,284,2.0,5.0,94,0.00,,,0.00,WeatherCatV1.13B119,2013-02-28 08:15:00,
2013-02-28 00:20:00,37.1,35.5,30.21,North,356,3.0,8.0,94,0.00,,,0.00,WeatherCatV1.13B119,2013-02-28 08:20:00,
2013-02-28 00:25:00,37.1,35.5,30.21,NW,316,3.0,6.0,94,0.00,,,0.00,WeatherCatV1.13B119,2013-02-28 08:25:00,
2013-02-28 00:30:00,37.2,35.6,30.21,NNW,347,5.0,6.0,94,0.00,,,0.00,WeatherCatV1.13B119,2013-02-28 08:30:00,
2013-02-28 00:35:00,37.2,35.6,30.21,NNE,12,5.0,6.0,94,0.00,,,0.00,WeatherCatV1.13B119,2013-02-28 08:35:00,
2013-02-28 00:40:00,37.2,35.6,30.21,NNW,337,1.0,5.0,94,0.00,,,0.00,WeatherCatV1.13B119,2013-02-28 08:40:00,
2013-02-28 00:45:00,37.1,35.5,30.21,NNW,335,3.0,6.0,94,0.00,,,0.00,WeatherCatV1.13B119,2013-02-28 08:45:00,
2013-02-28 00:50:00,37.1,35.5,30.21,North,349,2.0,6.0,94,0.00,,,0.00,WeatherCatV1.13B119,2013-02-28 08:50:00,
2013-02-28 00:55:00,37.1,35.5,30.21,North,352,3.0,4.0,94,0.00,,,0.00,WeatherCatV1.13B119,2013-02-28 08:55:00,
2013-02-28 01:00:00,37.0,35.4,30.22,NNW,343,3.0,4.0,94,0.00,,,0.00,WeatherCatV1.13B119,2013-02-28 09:00:00,
2013-02-28 01:05:00,37.0,35.4,30.21,West,281,0.0,5.0,94,0.00,,,0.00,WeatherCatV1.13B119,2013-02-28 09:05:00,
2013-02-28 01:10:00,36.9,35.3,30.21,NNW,335,0.0,3.0,94,0.00,,,0.00,WeatherCatV1.13B119,2013-02-28 09:10:00,
2013-02-28 01:15:00,36.9,35.3,30.21,North,352,4.0,5.0,94,0.00,,,0.00,WeatherCatV1.13B119,2013-02-28 09:15:00,
2013-02-28 01:20:00,36.8,35.2,30.21,WNW,293,2.0,4.0,94,0.00,,,0.00,WeatherCatV1.13B119,2013-02-28 09:20:00,
2013-02-28 01:25:00,36.8,35.2,30.21,NW,312,2.0,3.0,94,0.00,,,0.00,WeatherCatV1.13B119,2013-02-28 09:25:00,
2013-02-28 01:30:00,36.8,35.2,30.21,NW,308,3.0,4.0,94,0.00,,,0.00,WeatherCatV1.13B119,2013-02-28 09:30:00,
2013-02-28 01:35:00,36.8,35.2,30.21,NNW,343,3.0,6.0,94,0.00,,,0.00,WeatherCatV1.13B119,2013-02-28 09:35:00,
2013-02-28 01:40:00,36.8,35.2,30.21,NW,312,0.0,4.0,94,0.00,,,0.00,WeatherCatV1.13B119,2013-02-28 09:40:00,
2013-02-28 01:45:00,36.8,35.2,30.21,NNW,345,1.0,4.0,94,0.00,,,0.00,WeatherCatV1.13B119,2013-02-28 09:45:00,
2013-02-28 01:50:00,36.8,35.2,30.20,NNW,343,4.0,5.0,94,0.00,,,0.00,WeatherCatV1.13B119,2013-02-28 09:50:00,
2013-02-28 01:55:00,36.8,35.2,30.21,WNW,302,1.0,4.0,94,0.00,,,0.00,WeatherCatV1.13B119,2013-02-28 09:55:00,
2013-02-28 02:00:00,36.8,35.2,30.20,NNW,328,1.0,6.0,94,0.00,,,0.00,WeatherCatV1.13B119,2013-02-28 10:00:00,
2013-02-28 02:05:00,36.7,35.1,30.20,WSW,242,1.0,3.0,94,0.00,,,0.00,WeatherCatV1.13B119,2013-02-28 10:05:00,
2013-02-28 02:10:00,36.7,35.1,30.21,WNW,293,3.0,3.0,94,0.00,,,0.00,WeatherCatV1.13B119,2013-02-28 10:10:00,
2013-02-28 02:15:00,36.7,35.1,30.21,NW,311,6.0,6.0,94,0.00,,,0.00,WeatherCatV1.13B119,2013-02-28 10:15:00,
2013-02-28 02:20:00,36.7,35.1,30.21,West,281,1.0,3.0,94,0.00,,,0.00,WeatherCatV1.13B119,2013-02-28 10:20:00,
2013-02-28 02:25:00,36.7,35.1,30.20,NW,314,3.0,3.0,94,0.00,,,0.00,WeatherCatV1.13B119,2013-02-28 10:25:00,
2013-02-28 02:30:00,36.7,35.1,30.20,NNW,337,2.0,5.0,94,0.00,,,0.00,WeatherCatV1.13B119,2013-02-28 10:30:00,
2013-02-28 02:35:00,36.7,35.1,30.20,WNW,285,1.0,6.0,94,0.00,,,0.00,WeatherCatV1.13B119,2013-02-28 10:35:00,
2013-02-28 02:40:00,36.7,34.9,30.19,NW,305,3.0,4.0,93,0.00,,,0.00,WeatherCatV1.13B119,2013-02-28 10:40:00,
2013-02-28 02:45:00,36.7,34.9,30.19,NW,326,4.0,5.0,93,0.00,,,0.00,WeatherCatV1.13B119,2013-02-28 10:45:00,
2013-02-28 02:50:00,36.6,34.8,30.19,NNW,339,4.0,5.0,93,0.00,,,0.00,WeatherCatV1.13B119,2013-02-28 10:50:00,
2013-02-28 02:55:00,36.5,34.7,30.19,NW,322,4.0,6.0,93,0.00,,,0.00,WeatherCatV1.13B119,2013-02-28 10:55:00,
2013-02-28 03:00:00,36.4,34.6,30.19,NNW,329,4.0,5.0,93,0.00,,,0.00,WeatherCatV1.13B119,2013-02-28 11:00:00,
2013-02-28 03:05:00,36.4,34.6,30.19,WNW,284,2.0,6.0,93,0.00,,,0.00,WeatherCatV1.13B119,2013-02-28 11:05:00,
2013-02-28 03:10:00,36.3,34.5,30.19,NNW,344,3.0,3.0,93,0.00,,,0.00,WeatherCatV1.13B119,2013-02-28 11:10:00,
2013-02-28 03:15:00,36.2,34.4,30.19,NW,322,3.0,4.0,93,0.00,,,0.00,WeatherCatV1.13B119,2013-02-28 11:15:00,
2013-02-28 03:20:00,36.1,34.3,30.19,NNW,338,5.0,5.0,93,0.00,,,0.00,WeatherCatV1.13B119,2013-02-28 11:20:00,
2013-02-28 03:25:00,36.1,34.3,30.19,WNW,290,4.0,6.0,93,0.00,,,0.00,WeatherCatV1.13B119,2013-02-28 11:25:00,
2013-02-28 03:30:00,36.1,34.3,30.20,WNW,293,3.0,5.0,93,0.00,,,0.00,WeatherCatV1.13B119,2013-02-28 11:30:00,
2013-02-28 03:35:00,36.3,34.5,30.19,NE,41,2.0,7.0,93,0.00,,,0.00,WeatherCatV1.13B119,2013-02-28 11:35:00,
2013-02-28 03:40:00,36.3,34.5,30.19,NNW,340,2.0,5.0,93,0.00,,,0.00,WeatherCatV1.13B119,2013-02-28 11:40:00,
2013-02-28 03:45:00,36.4,34.6,30.19,WSW,256,4.0,4.0,93,0.00,,,0.00,WeatherCatV1.13B119,2013-02-28 11:45:00,
2013-02-28 03:50:00,36.4,34.6,30.18,ENE,60,3.0,4.0,93,0.00,,,0.00,WeatherCatV1.13B119,2013-02-28 11:50:00,
2013-02-28 03:55:00,36.5,34.4,30.18,NE,41,4.0,5.0,92,0.00,,,0.00,WeatherCatV1.13B119,2013-02-28 11:55:00,
2013-02-28 04:00:00,36.5,34.4,30.19,WNW,302,1.0,5.0,92,0.00,,,0.00,WeatherCatV1.13B119,2013-02-28 12:00:00,
2013-02-28 04:05:00,36.5,34.4,30.19,NNW,333,2.0,3.0,92,0.00,,,0.00,WeatherCatV1.13B119,2013-02-28 12:05:00,
2013-02-28 04:10:00,36.6,34.2,30.19,NW,314,3.0,3.0,91,0.00,,,0.00,WeatherCatV1.13B119,2013-02-28 12:10:00,
2013-02-28 04:15:00,36.5,34.4,30.18,North,0,2.0,6.0,92,0.00,,,0.00,WeatherCatV1.13B119,2013-02-28 12:15:00,
2013-02-28 04:20:00,36.6,34.5,30.17,WSW,256,4.0,5.0,92,0.00,,,0.00,WeatherCatV1.13B119,2013-02-28 12:20:00,
2013-02-28 04:25:00,36.6,34.5,30.17,North,356,4.0,4.0,92,0.00,,,0.00,WeatherCatV1.13B119,2013-02-28 12:25:00,
2013-02-28 04:30:00,36.5,34.4,30.17,NW,323,3.0,6.0,92,0.00,,,0.00,WeatherCatV1.13B119,2013-02-28 12:30:00,
2013-02-28 04:35:00,36.7,34.9,30.17,NW,314,4.0,5.0,93,0.00,,,0.00,WeatherCatV1.13B119,2013-02-28 12:35:00,
2013-02-28 04:40:00,36.7,34.9,30.17,SW,231,1.0,7.0,93,0.00,,,0.00,WeatherCatV1.13B119,2013-02-28 12:40:00,
2013-02-28 04:45:00,36.7,34.9,30.17,WNW,291,3.0,8.0,93,0.00,,,0.00,WeatherCatV1.13B119,2013-02-28 12:45:00,
2013-02-28 04:50:00,36.8,34.7,30.17,East,91,1.0,6.0,92,0.00,,,0.00,WeatherCatV1.13B119,2013-02-28 12:50:00,
2013-02-28 04:55:00,36.8,34.4,30.17,NNW,333,4.0,6.0,91,0.00,,,0.00,WeatherCatV1.13B119,2013-02-28 12:55:00,
2013-02-28 05:00:00,36.9,34.5,30.17,West,276,3.0,7.0,91,0.00,,,0.00,WeatherCatV1.13B119,2013-02-28 13:00:00,
2013-02-28 05:05:00,37.0,34.3,30.17,North,359,4.0,6.0,90,0.00,,,0.00,WeatherCatV1.13B119,2013-02-28 13:05:00,
2013-02-28 05:10:00,37.0,34.3,30.17,WNW,297,4.0,6.0,90,0.00,,,0.00,WeatherCatV1.13B119,2013-02-28 13:10:00,
2013-02-28 05:15:00,37.1,34.4,30.16,WNW,300,3.0,7.0,90,0.00,,,0.00,WeatherCatV1.13B119,2013-02-28 13:15:00,
2013-02-28 05:20:00,37.1,34.4,30.16,SE,129,1.0,5.0,90,0.00,,,0.00,WeatherCatV1.13B119,2013-02-28 13:20:00,
2013-02-28 05:25:00,37.2,34.5,30.15,SSE,156,1.0,6.0,90,0.00,,,0.00,WeatherCatV1.13B119,2013-02-28 13:25:00,
2013-02-28 05:30:00,37.2,34.5,30.15,WNW,297,3.0,3.0,90,0.00,,,0.00,WeatherCatV1.13B119,2013-02-28 13:30:00,
2013-02-28 05:35:00,37.2,34.5,30.15,WSW,247,1.0,4.0,90,0.00,,,0.00,WeatherCatV1.13B119,2013-02-28 13:35:00,
2013-02-28 05:40:00,37.2,34.5,30.15,SE,132,1.0,4.0,90,0.00,,,0.00,WeatherCatV1.13B119,2013-02-28 13:40:00,
2013-02-28 05:45:00,37.3,34.4,30.16,NW,319,3.0,6.0,89,0.00,,,0.00,WeatherCatV1.13B119,2013-02-28 13:45:00,
2013-02-28 05:50:00,37.3,34.6,30.16,WSW,250,2.0,5.0,90,0.00,,,0.00,WeatherCatV1.13B119,2013-02-28 13:50:00,
2013-02-28 05:55:00,37.3,34.6,30.16,WNW,302,3.0,5.0,90,0.00,,,0.00,WeatherCatV1.13B119,2013-02-28 13:55:00,
2013-02-28 06:00:00,37.3,34.6,30.15,SSE,155,3.0,3.0,90,0.00,,,0.00,WeatherCatV1.13B119,2013-02-28 14:00:00,
2013-02-28 06:05:00,37.3,34.6,30.15,West,276,3.0,5.0,90,0.00,,,0.00,WeatherCatV1.13B119,2013-02-28 14:05:00,
2013-02-28 06:10:00,37.4,34.7,30.15,WNW,300,1.0,5.0,90,0.00,,,0.00,WeatherCatV1.13B119,2013-02-28 14:10:00,
2013-02-28 06:15:00,37.4,34.7,30.14,West,271,4.0,5.0,90,0.00,,,0.00,WeatherCatV1.13B119,2013-02-28 14:15:00,
2013-02-28 06:20:00,37.4,34.7,30.14,NNW,332,1.0,5.0,90,0.00,,,0.00,WeatherCatV1.13B119,2013-02-28 14:20:00,
2013-02-28 06:25:00,37.5,34.8,30.14,North,5,3.0,8.0,90,0.00,,,0.00,WeatherCatV1.13B119,2013-02-28 14:25:00,
2013-02-28 06:30:00,37.6,34.9,30.14,NNW,335,4.0,8.0,90,0.00,,,0.00,WeatherCatV1.13B119,2013-02-28 14:30:00,
2013-02-28 06:35:00,37.6,34.9,30.14,NNW,333,5.0,7.0,90,0.00,,,0.00,WeatherCatV1.13B119,2013-02-28 14:35:00,
2013-02-28 06:40:00,37.7,35.0,30.14,NW,305,3.0,6.0,90,0.00,,,0.00,WeatherCatV1.13B119,2013-02-28 14:40:00,
2013-02-28 06:45:00,37.8,35.1,30.14,NNW,329,4.0,7.0,90,0.00,,,0.00,WeatherCatV1.13B119,2013-02-28 14:45:00,
2013-02-28 06:50:00,37.7,35.0,30.14,ESE,117,2.0,5.0,90,0.00,,,0.00,WeatherCatV1.13B119,2013-02-28 14:50:00,
2013-02-28 06:55:00,37.9,35.0,30.14,NW,316,6.0,6.0,89,0.00,,,0.00,WeatherCatV1.13B119,2013-02-28 14:55:00,
2013-02-28 07:00:00,38.0,35.1,30.14,NNW,339,5.0,7.0,89,0.00,,,0.00,WeatherCatV1.13B119,2013-02-28 15:00:00,
2013-02-28 07:05:00,38.1,35.2,30.14,NNW,330,2.0,4.0,89,0.00,,,0.00,WeatherCatV1.13B119,2013-02-28 15:05:00,
2013-02-28 07:10:00,38.1,35.2,30.13,North,0,1.0,5.0,89,0.00,,,0.00,WeatherCatV1.13B119,2013-02-28 15:10:00,
2013-02-28 07:15:00,38.1,35.2,30.14,NW,318,4.0,6.0,89,0.00,,,0.00,WeatherCatV1.13B119,2013-02-28 15:15:00,
2013-02-28 07:20:00,38.2,35.2,30.14,WSW,243,1.0,4.0,89,0.00,,,0.00,WeatherCatV1.13B119,2013-02-28 15:20:00,
2013-02-28 07:25:00,38.3,35.1,30.13,NNW,347,3.0,5.0,88,0.00,,,0.00,WeatherCatV1.13B119,2013-02-28 15:25:00,
2013-02-28 07:30:00,38.4,35.2,30.13,West,280,1.0,3.0,88,0.00,,,0.00,WeatherCatV1.13B119,2013-02-28 15:30:00,
2013-02-28 07:35:00,38.5,35.3,30.14,SSE,163,1.0,5.0,88,0.00,,,0.00,WeatherCatV1.13B119,2013-02-28 15:35:00,
2013-02-28 07:40:00,38.5,35.3,30.14,SE,131,4.0,9.0,88,0.00,,,0.00,WeatherCatV1.13B119,2013-02-28 15:40:00,
2013-02-28 07:45:00,38.7,35.2,30.14,NW,316,5.0,8.0,87,0.00,,,0.00,WeatherCatV1.13B119,2013-02-28 15:45:00,
2013-02-28 07:50:00,38.9,35.1,30.14,NNW,333,5.0,9.0,86,0.00,,,0.00,WeatherCatV1.13B119,2013-02-28 15:50:00,
2013-02-28 07:55:00,39.0,35.2,30.13,West,263,3.0,4.0,86,0.00,,,0.00,WeatherCatV1.13B119,2013-02-28 15:55:00,
2013-02-28 08:00:00,39.0,35.2,30.13,NW,305,4.0,6.0,86,0.00,,,0.00,WeatherCatV1.13B119,2013-02-28 16:00:00,
2013-02-28 08:05:00,39.1,35.0,30.12,SSE,152,0.0,5.0,85,0.00,,,0.00,WeatherCatV1.13B119,2013-02-28 16:05:00,
2013-02-28 08:10:00,39.4,35.3,30.12,NNW,339,1.0,3.0,85,0.00,,,0.00,WeatherCatV1.13B119,2013-02-28 16:10:00,
2013-02-28 08:15:00,39.4,35.0,30.12,NW,307,1.0,3.0,84,0.00,,,0.00,WeatherCatV1.13B119,2013-02-28 16:15:00,
2013-02-28 08:20:00,39.6,35.2,30.12,SSW,197,0.0,4.0,84,0.00,,,0.00,WeatherCatV1.13B119,2013-02-28 16:20:00,
2013-02-28 08:25:00,39.7,35.3,30.12,NNW,330,0.0,1.0,84,0.00,,,0.00,WeatherCatV1.13B119,2013-02-28 16:25:00,
2013-02-28 08:30:00,39.7,35.3,30.12,SSE,148,0.0,4.0,84,0.00,,,0.00,WeatherCatV1.13B119,2013-02-28 16:30:00,
2013-02-28 08:35:00,39.7,35.3,30.12,West,271,0.0,0.0,84,0.00,,,0.00,WeatherCatV1.13B119,2013-02-28 16:35:00,
2013-02-28 08:40:00,39.7,35.3,30.12,NNW,335,1.0,1.0,84,0.00,,,0.00,WeatherCatV1.13B119,2013-02-28 16:40:00,
2013-02-28 08:45:00,39.7,35.6,30.12,NW,305,1.0,3.0,85,0.00,,,0.00,WeatherCatV1.13B119,2013-02-28 16:45:00,
2013-02-28 08:50:00,39.5,35.7,30.12,East,93,0.0,3.0,86,0.00,,,0.00,WeatherCatV1.13B119,2013-02-28 16:50:00,
2013-02-28 08:55:00,39.4,35.9,30.12,WNW,293,0.0,2.0,87,0.00,,,0.00,WeatherCatV1.13B119,2013-02-28 16:55:00,
2013-02-28 09:00:00,39.3,36.0,30.12,NNE,18,0.0,3.0,88,0.00,,,0.00,WeatherCatV1.13B119,2013-02-28 17:00:00,
2013-02-28 09:05:00,39.1,36.1,30.12,ENE,65,1.0,3.0,89,0.00,,,0.01,WeatherCatV1.13B119,2013-02-28 17:05:00,
2013-02-28 09:10:00,39.0,36.3,30.12,NNW,340,0.0,1.0,90,0.00,,,0.01,WeatherCatV1.13B119,2013-02-28 17:10:00,
2013-02-28 09:15:00,38.9,36.2,30.12,NW,312,0.0,0.0,90,0.00,,,0.01,WeatherCatV1.13B119,2013-02-28 17:15:00,
2013-02-28 09:20:00,38.9,36.2,30.13,North,10,0.0,3.0,90,0.04,,,0.02,WeatherCatV1.13B119,2013-02-28 17:20:00,
2013-02-28 09:25:00,38.8,36.4,30.13,NW,323,1.0,1.0,91,0.04,,,0.02,WeatherCatV1.13B119,2013-02-28 17:25:00,
2013-02-28 09:30:00,38.8,36.4,30.13,North,11,0.0,0.0,91,0.04,,,0.02,WeatherCatV1.13B119,2013-02-28 17:30:00,
2013-02-28 09:35:00,38.9,36.8,30.13,SE,129,0.0,2.0,92,0.04,,,0.02,WeatherCatV1.13B119,2013-02-28 17:35:00,
2013-02-28 09:40:00,38.8,36.7,30.12,NNW,329,1.0,2.0,92,0.04,,,0.03,WeatherCatV1.13B119,2013-02-28 17:40:00,
2013-02-28 09:45:00,38.8,36.7,30.12,ENE,73,1.0,4.0,92,0.04,,,0.03,WeatherCatV1.13B119,2013-02-28 17:45:00,
2013-02-28 09:50:00,38.7,36.6,30.12,WNW,289,0.0,0.0,92,0.06,,,0.04,WeatherCatV1.13B119,2013-02-28 17:50:00,
2013-02-28 09:55:00,38.7,36.9,30.12,SE,139,1.0,1.0,93,0.05,,,0.05,WeatherCatV1.13B119,2013-02-28 17:55:00,
2013-02-28 10:00:00,38.8,37.0,30.13,NNE,13,0.0,1.0,93,0.09,,,0.05,WeatherCatV1.13B119,2013-02-28 18:00:00,
2013-02-28 10:05:00,38.8,37.0,30.13,NW,308,0.0,3.0,93,0.09,,,0.05,WeatherCatV1.13B119,2013-02-28 18:05:00,
2013-02-28 10:10:00,38.8,37.0,30.13,NW,314,1.0,2.0,93,0.08,,,0.06,WeatherCatV1.13B119,2013-02-28 18:10:00,
2013-02-28 10:15:00,38.9,37.1,30.13,East,82,1.0,2.0,93,0.06,,,0.07,WeatherCatV1.13B119,2013-02-28 18:15:00,
2013-02-28 10:20:00,38.9,37.1,30.13,East,85,2.0,3.0,93,0.06,,,0.07,WeatherCatV1.13B119,2013-02-28 18:20:00,
2013-02-28 10:25:00,38.9,37.1,30.13,ENE,73,1.0,3.0,93,0.06,,,0.00,WeatherCatV1.13B119,2013-02-28 18:25:00,
2013-02-28 10:30:00,38.9,37.3,30.13,ENE,78,1.0,2.0,94,0.13,,,0.00,WeatherCatV1.13B119,2013-02-28 18:30:00,
2013-02-28 10:35:00,38.9,37.3,30.13,ENE,77,1.0,1.0,94,0.10,,,0.00,WeatherCatV1.13B119,2013-02-28 18:35:00,
2013-02-28 10:40:00,38.9,37.3,30.13,North,0,0.0,1.0,94,0.09,,,0.00,WeatherCatV1.13B119,2013-02-28 18:40:00,
2013-02-28 10:45:00,38.9,37.3,30.13,NNE,30,0.0,0.0,94,0.09,,,0.00,WeatherCatV1.13B119,2013-02-28 18:45:00,
2013-02-28 10:50:00,39.0,37.4,30.13,NNW,332,1.0,5.0,94,0.09,,,0.00,WeatherCatV1.13B119,2013-02-28 18:50:00,
2013-02-28 10:55:00,39.0,37.4,30.13,NW,325,1.0,3.0,94,0.11,,,0.00,WeatherCatV1.13B119,2013-02-28 18:55:00,
2013-02-28 11:00:00,39.1,37.5,30.13,NW,321,2.0,2.0,94,0.11,,,0.00,WeatherCatV1.13B119,2013-02-28 19:00:00,
2013-02-28 11:05:00,39.1,37.5,30.13,NW,322,1.0,2.0,94,0.13,,,0.00,WeatherCatV1.13B119,2013-02-28 19:05:00,
2013-02-28 11:19:00,39.1,37.5,30.13,NW,309,1.0,2.0,94,0.12,,,0.00,WeatherCatV1.13B119,2013-02-28 19:19:00,
2013-02-28 11:24:00,39.3,37.7,30.13,West,259,0.0,2.0,94,0.04,,,0.17,WeatherCatV1.13B119,2013-02-28 19:24:00,
2013-02-28 11:29:00,39.3,37.7,30.13,WNW,291,3.0,3.0,94,0.04,,,0.17,WeatherCatV1.13B119,2013-02-28 19:29:00,
2013-02-28 11:34:00,39.4,37.8,30.14,NW,310,1.0,3.0,94,0.04,,,0.17,WeatherCatV1.13B119,2013-02-28 19:34:00,
2013-02-28 11:39:00,39.3,37.7,30.14,WNW,295,0.0,2.0,94,0.03,,,0.18,WeatherCatV1.13B119,2013-02-28 19:39:00,
2013-02-28 11:44:00,39.3,37.7,30.14,WNW,284,1.0,3.0,94,0.09,,,0.19,WeatherCatV1.13B119,2013-02-28 19:44:00,
2013-02-28 11:49:00,39.2,37.6,30.14,WNW,293,2.0,5.0,94,0.10,,,0.20,WeatherCatV1.13B119,2013-02-28 19:49:00,
2013-02-28 11:54:00,39.2,37.6,30.14,North,10,2.0,3.0,94,0.08,,,0.20,WeatherCatV1.13B119,2013-02-28 19:54:00,
2013-02-28 11:59:00,39.2,37.6,30.14,North,349,2.0,3.0,94,0.08,,,0.20,WeatherCatV1.13B119,2013-02-28 19:59:00,
2013-02-28 12:04:00,39.3,37.7,30.15,ESE,117,0.0,2.0,94,0.07,,,0.21,WeatherCatV1.13B119,2013-02-28 20:04:00,
2013-02-28 12:09:00,39.3,37.7,30.15,NW,314,0.0,1.0,94,0.05,,,0.21,WeatherCatV1.13B119,2013-02-28 20:09:00,
2013-02-28 12:14:00,39.4,37.8,30.15,ENE,64,0.0,3.0,94,0.05,,,0.22,WeatherCatV1.13B119,2013-02-28 20:14:00,
2013-02-28 12:19:00,39.4,37.8,30.14,NNW,338,2.0,3.0,94,0.05,,,0.22,WeatherCatV1.13B119,2013-02-28 20:19:00,
2013-02-28 12:24:00,39.4,37.8,30.14,WSW,248,1.0,2.0,94,0.03,,,0.22,WeatherCatV1.13B119,2013-02-28 20:24:00,
2013-02-28 12:29:00,39.3,37.7,30.14,West,263,4.0,4.0,94,0.00,,,0.22,WeatherCatV1.13B119,2013-02-28 20:29:00,
2013-02-28 12:34:00,39.3,37.7,30.14,NNW,329,4.0,7.0,94,0.00,,,0.22,WeatherCatV1.13B119,2013-02-28 20:34:00,
2013-02-28 12:39:00,39.3,37.7,30.14,NNW,339,2.0,4.0,94,0.00,,,0.22,WeatherCatV1.13B119,2013-02-28 20:39:00,
2013-02-28 12:44:00,39.3,37.7,30.14,WNW,288,0.0,6.0,94,0.00,,,0.22,WeatherCatV1.13B119,2013-02-28 20:44:00,
2013-02-28 12:49:00,39.4,37.8,30.14,NW,314,2.0,5.0,94,0.00,,,0.23,WeatherCatV1.13B119,2013-02-28 20:49:00,
2013-02-28 12:54:00,39.5,37.9,30.14,WNW,284,5.0,5.0,94,0.00,,,0.23,WeatherCatV1.13B119,2013-02-28 20:54:00,
2013-02-28 12:59:00,39.5,37.9,30.14,NW,323,5.0,7.0,94,0.00,,,0.23,WeatherCatV1.13B119,2013-02-28 20:59:00,
2013-02-28 13:04:00,39.6,38.0,30.14,NW,315,2.0,6.0,94,0.00,,,0.23,WeatherCatV1.13B119,2013-02-28 21:04:00,
2013-02-28 13:09:00,39.6,38.0,30.15,SSW,203,0.0,4.0,94,0.00,,,0.23,WeatherCatV1.13B119,2013-02-28 21:09:00,
2013-02-28 13:14:00,39.6,38.0,30.14,East,91,3.0,3.0,94,0.00,,,0.23,WeatherCatV1.13B119,2013-02-28 21:14:00,
2013-02-28 13:19:00,39.6,37.7,30.15,WNW,300,1.0,4.0,93,0.00,,,0.23,WeatherCatV1.13B119,2013-02-28 21:19:00,
2013-02-28 13:24:00,39.7,37.8,30.14,WNW,293,1.0,3.0,93,0.00,,,0.23,WeatherCatV1.13B119,2013-02-28 21:24:00,
2013-02-28 13:29:00,39.7,37.8,30.15,ENE,62,4.0,5.0,93,0.00,,,0.23,WeatherCatV1.13B119,2013-02-28 21:29:00,
2013-02-28 13:34:00,39.8,37.9,30.14,ENE,75,1.0,4.0,93,0.00,,,0.23,WeatherCatV1.13B119,2013-02-28 21:34:00,
2013-02-28 13:39:00,39.8,37.9,30.14,West,278,1.0,6.0,93,0.00,,,0.23,WeatherCatV1.13B119,2013-02-28 21:39:00,
2013-02-28 13:44:00,39.9,38.0,30.14,WNW,283,0.0,2.0,93,0.00,,,0.23,WeatherCatV1.13B119,2013-02-28 21:44:00,
2013-02-28 13:49:00,39.9,38.0,30.14,East,94,0.0,3.0,93,0.00,,,0.23,WeatherCatV1.13B119,2013-02-28 21:49:00,
2013-02-28 13:54:00,40.0,38.4,30.14,NW,311,1.0,3.0,94,0.00,,,0.23,WeatherCatV1.13B119,2013-02-28 21:54:00,
2013-02-28 13:59:00,40.0,38.4,30.14,NNW,346,1.0,5.0,94,0.00,,,0.23,WeatherCatV1.13B119,2013-02-28 21:59:00,
2013-02-28 14:04:00,40.1,38.5,30.14,NNW,327,2.0,7.0,94,0.00,,,0.23,WeatherCatV1.13B119,2013-02-28 22:04:00,
2013-02-28 14:09:00,40.3,38.4,30.14,East,83,4.0,6.0,93,0.00,,,0.23,WeatherCatV1.13B119,2013-02-28 22:09:00,
2013-02-28 14:14:00,40.6,38.7,30.14,NW,309,1.0,4.0,93,0.00,,,0.23,WeatherCatV1.13B119,2013-02-28 22:14:00,
2013-02-28 14:19:00,40.7,38.8,30.14,NW,311,2.0,5.0,93,0.00,,,0.23,WeatherCatV1.13B119,2013-02-28 22:19:00,
2013-02-28 14:24:00,40.5,38.6,30.14,North,352,3.0,5.0,93,0.00,,,0.23,WeatherCatV1.13B119,2013-02-28 22:24:00,
2013-02-28 14:29:00,40.6,38.7,30.13,NNW,339,2.0,4.0,93,0.00,,,0.23,WeatherCatV1.13B119,2013-02-28 22:29:00,
2013-02-28 14:34:00,40.6,38.7,30.13,West,262,0.0,2.0,93,0.00,,,0.23,WeatherCatV1.13B119,2013-02-28 22:34:00,
2013-02-28 14:39:00,40.6,38.7,30.13,ENE,72,1.0,5.0,93,0.00,,,0.23,WeatherCatV1.13B119,2013-02-28 22:39:00,
2013-02-28 14:44:00,40.6,38.7,30.13,ESE,111,1.0,3.0,93,0.00,,,0.23,WeatherCatV1.13B119,2013-02-28 22:44:00,
2013-02-28 14:49:00,40.7,38.8,30.13,WNW,285,3.0,5.0,93,0.00,,,0.23,WeatherCatV1.13B119,2013-02-28 22:49:00,
2013-02-28 14:54:00,40.7,38.6,30.13,NW,310,3.0,6.0,92,0.00,,,0.23,WeatherCatV1.13B119,2013-02-28 22:54:00,
2013-02-28 14:59:00,40.9,39.0,30.13,East,96,1.0,2.0,93,0.00,,,0.23,WeatherCatV1.13B119,2013-02-28 22:59:00,
2013-02-28 15:04:00,41.1,39.2,30.13,WNW,302,3.0,4.0,93,0.00,,,0.23,WeatherCatV1.13B119,2013-02-28 23:04:00,
2013-02-28 15:09:00,41.1,39.2,30.13,NNW,340,0.0,2.0,93,0.00,,,0.23,WeatherCatV1.13B119,2013-02-28 23:09:00,
2013-02-28 15:14:00,41.1,39.2,30.13,NW,314,3.0,3.0,93,0.00,,,0.23,WeatherCatV1.13B119,2013-02-28 23:14:00,
2013-02-28 15:19:00,41.3,39.4,30.13,NNW,339,0.0,3.0,93,0.00,,,0.23,WeatherCatV1.13B119,2013-02-28 23:19:00,
2013-02-28 15:24:00,41.7,39.8,30.13,NNW,331,0.0,2.0,93,0.00,,,0.23,WeatherCatV1.13B119,2013-02-28 23:24:00,
2013-02-28 15:29:00,42.0,39.8,30.13,SE,139,0.0,4.0,92,0.00,,,0.23,WeatherCatV1.13B119,2013-02-28 23:29:00,
2013-02-28 15:34:00,42.3,40.1,30.13,East,91,0.0,5.0,92,0.00,,,0.23,WeatherCatV1.13B119,2013-02-28 23:34:00,
2013-02-28 15:39:00,42.9,40.5,30.13,NNW,333,0.0,4.0,91,0.00,,,0.23,WeatherCatV1.13B119,2013-02-28 23:39:00,
2013-02-28 15:44:00,43.0,40.3,30.13,ENE,69,2.0,6.0,90,0.00,,,0.23,WeatherCatV1.13B119,2013-02-28 23:44:00,
2013-02-28 15:49:00,43.1,40.4,30.13,East,84,1.0,1.0,90,0.00,,,0.23,WeatherCatV1.13B119,2013-02-28 23:49:00,
2013-02-28 15:54:00,42.8,40.1,30.13,WNW,290,2.0,5.0,90,0.00,,,0.23,WeatherCatV1.13B119,2013-02-28 23:54:00,
2013-02-28 15:59:00,42.5,40.1,30.12,ENE,67,4.0,5.0,91,0.00,,,0.23,WeatherCatV1.13B119,2013-02-28 23:59:00,
2013-02-28 16:04:00,42.9,40.2,30.12,NE,41,0.0,4.0,90,0.00,,,0.23,WeatherCatV1.13B119,2013-03-01 00:04:00,
2013-02-28 16:09:00,43.1,40.4,30.12,ESE,105,0.0,4.0,90,0.00,,,0.23,WeatherCatV1.13B119,2013-03-01 00:09:00,
2013-02-28 16:14:00,43.2,40.5,30.12,ESE,103,4.0,6.0,90,0.00,,,0.23,WeatherCatV1.13B119,2013-03-01 00:14:00,
2013-02-28 16:19:00,43.4,40.7,30.12,SE,137,0.0,7.0,90,0.00,,,0.23,WeatherCatV1.13B119,2013-03-01 00:19:00,
2013-02-28 16:24:00,43.5,40.8,30.12,ENE,65,2.0,6.0,90,0.00,,,0.23,WeatherCatV1.13B119,2013-03-01 00:24:00,
2013-02-28 16:29:00,43.3,40.9,30.11,West,271,0.0,3.0,91,0.00,,,0.23,WeatherCatV1.13B119,2013-03-01 00:29:00,
2013-02-28 16:34:00,42.9,40.5,30.12,East,84,1.0,2.0,91,0.00,,,0.23,WeatherCatV1.13B119,2013-03-01 00:34:00,
2013-02-28 16:39:00,42.8,40.6,30.12,NW,322,0.0,3.0,92,0.00,,,0.23,WeatherCatV1.13B119,2013-03-01 00:39:00,
2013-02-28 16:44:00,43.1,40.9,30.12,WNW,290,1.0,5.0,92,0.00,,,0.23,WeatherCatV1.13B119,2013-03-01 00:44:00,
2013-02-28 16:49:00,43.2,41.0,30.12,East,96,0.0,1.0,92,0.00,,,0.23,WeatherCatV1.13B119,2013-03-01 00:49:00,
2013-02-28 16:54:00,43.4,41.0,30.11,East,99,1.0,4.0,91,0.00,,,0.23,WeatherCatV1.13B119,2013-03-01 00:54:00,
2013-02-28 16:59:00,43.2,40.8,30.11,East,96,0.0,1.0,91,0.00,,,0.23,WeatherCatV1.13B119,2013-03-01 00:59:00,
2013-02-28 17:04:00,43.0,40.8,30.11,East,89,2.0,6.0,92,0.00,,,0.23,WeatherCatV1.13B119,2013-03-01 01:04:00,
2013-02-28 17:09:00,43.5,41.3,30.12,ENE,63,7.0,10.0,92,0.00,,,0.23,WeatherCatV1.13B119,2013-03-01 01:09:00,
2013-02-28 17:14:00,43.9,41.4,30.11,East,89,2.0,4.0,91,0.00,,,0.23,WeatherCatV1.13B119,2013-03-01 01:14:00,
2013-02-28 17:19:00,43.9,41.4,30.11,ENE,68,0.0,7.0,91,0.00,,,0.23,WeatherCatV1.13B119,2013-03-01 01:19:00,
2013-02-28 17:24:00,43.9,41.4,30.12,SE,125,4.0,5.0,91,0.00,,,0.23,WeatherCatV1.13B119,2013-03-01 01:24:00,
2013-02-28 17:29:00,43.7,41.2,30.12,SE,146,3.0,6.0,91,0.00,,,0.23,WeatherCatV1.13B119,2013-03-01 01:29:00,
2013-02-28 17:34:00,44.4,42.2,30.12,ESE,121,0.0,5.0,92,0.00,,,0.23,WeatherCatV1.13B119,2013-03-01 01:34:00,
2013-02-28 17:39:00,44.8,42.3,30.12,ENE,75,11.0,13.0,91,0.00,,,0.23,WeatherCatV1.13B119,2013-03-01 01:39:00,
2013-02-28 17:44:00,45.3,42.8,30.12,SSE,163,4.0,8.0,91,0.00,,,0.24,WeatherCatV1.13B119,2013-03-01 01:44:00,
2013-02-28 17:49:00,45.5,42.7,30.13,ENE,68,0.0,6.0,90,0.00,,,0.24,WeatherCatV1.13B119,2013-03-01 01:49:00,
2013-02-28 17:54:00,45.5,43.0,30.13,SE,133,2.0,6.0,91,0.04,,,0.24,WeatherCatV1.13B119,2013-03-01 01:54:00,
2013-02-28 17:59:00,45.3,42.8,30.13,ESE,107,6.0,13.0,91,0.04,,,0.24,WeatherCatV1.13B119,2013-03-01 01:59:00,
2013-02-28 18:04:00,45.3,43.1,30.13,ESE,120,3.0,9.0,92,0.06,,,0.25,WeatherCatV1.13B119,2013-03-01 02:04:00,
2013-02-28 18:09:00,44.7,41.9,30.13,ENE,75,2.0,4.0,90,0.05,,,0.25,WeatherCatV1.13B119,2013-03-01 02:09:00,
2013-02-28 18:14:00,43.6,41.4,30.13,East,100,0.0,3.0,92,0.04,,,0.25,WeatherCatV1.13B119,2013-03-01 02:14:00,
2013-02-28 18:19:00,43.6,41.7,30.13,ESE,106,0.0,1.0,93,0.00,,,0.25,WeatherCatV1.13B119,2013-03-01 02:19:00,
2013-02-28 18:24:00,43.9,42.3,30.13,East,83,4.0,7.0,94,0.00,,,0.25,WeatherCatV1.13B119,2013-03-01 02:24:00,
2013-02-28 18:29:00,44.1,42.2,30.12,ENE,77,3.0,6.0,93,0.00,,,0.25,WeatherCatV1.13B119,2013-03-01 02:29:00,
2013-02-28 18:34:00,44.1,42.2,30.12,ENE,62,0.0,3.0,93,0.00,,,0.25,WeatherCatV1.13B119,2013-03-01 02:34:00,
2013-02-28 18:39:00,44.2,42.3,30.12,East,85,2.0,3.0,93,0.00,,,0.25,WeatherCatV1.13B119,2013-03-01 02:39:00,
2013-02-28 18:44:00,44.3,42.4,30.13,East,82,3.0,3.0,93,0.00,,,0.25,WeatherCatV1.13B119,2013-03-01 02:44:00,
2013-02-28 18:49:00,44.2,42.3,30.13,ENE,59,0.0,5.0,93,0.00,,,0.25,WeatherCatV1.13B119,2013-03-01 02:49:00,
2013-02-28 18:54:00,44.1,42.2,30.12,East,79,1.0,3.0,93,0.00,,,0.25,WeatherCatV1.13B119,2013-03-01 02:54:00,
2013-02-28 18:59:00,44.3,42.4,30.12,East,89,1.0,4.0,93,0.00,,,0.26,WeatherCatV1.13B119,2013-03-01 02:59:00,
2013-02-28 19:04:00,44.3,42.4,30.12,ENE,70,0.0,2.0,93,0.00,,,0.26,WeatherCatV1.13B119,2013-03-01 03:04:00,
2013-02-28 19:09:00,44.2,42.3,30.12,WNW,295,0.0,1.0,93,0.00,,,0.26,WeatherCatV1.13B119,2013-03-01 03:09:00,
2013-02-28 19:14:00,44.4,42.8,30.12,WSW,238,2.0,3.0,94,0.00,,,0.26,WeatherCatV1.13B119,2013-03-01 03:14:00,
2013-02-28 19:19:00,44.4,42.5,30.12,ESE,121,0.0,1.0,93,0.00,,,0.26,WeatherCatV1.13B119,2013-03-01 03:19:00,
2013-02-28 19:24:00,44.2,42.3,30.13,NNW,337,1.0,4.0,93,0.00,,,0.26,WeatherCatV1.13B119,2013-03-01 03:24:00,
2013-02-28 19:29:00,44.3,42.4,30.14,NW,305,2.0,3.0,93,0.00,,,0.26,WeatherCatV1.13B119,2013-03-01 03:29:00,
2013-02-28 19:34:00,44.1,42.2,30.14,ESE,112,0.0,1.0,93,0.00,,,0.26,WeatherCatV1.13B119,2013-03-01 03:34:00,
2013-02-28 19:39:00,44.0,42.1,30.14,NE,49,0.0,3.0,93,0.00,,,0.26,WeatherCatV1.13B119,2013-03-01 03:39:00,
2013-02-28 19:44:00,43.6,41.4,30.14,WNW,283,2.0,3.0,92,0.00,,,0.27,WeatherCatV1.13B119,2013-03-01 03:44:00,
2013-02-28 19:49:00,43.3,41.4,30.14,WSW,256,2.0,4.0,93,0.00,,,0.27,WeatherCatV1.13B119,2013-03-01 03:49:00,
2013-02-28 19:54:00,43.3,41.7,30.14,NE,36,5.0,5.0,94,0.06,,,0.28,WeatherCatV1.13B119,2013-03-01 03:54:00,
2013-02-28 19:59:00,43.1,41.5,30.13,NNW,327,3.0,4.0,94,0.06,,,0.28,WeatherCatV1.13B119,2013-03-01 03:59:00,
2013-02-28 20:04:00,43.0,41.4,30.13,ESE,102,1.0,1.0,94,0.06,,,0.28,WeatherCatV1.13B119,2013-03-01 04:04:00,
2013-02-28 20:09:00,43.0,41.4,30.13,East,82,2.0,3.0,94,0.05,,,0.29,WeatherCatV1.13B119,2013-03-01 04:09:00,
2013-02-28 20:14:00,43.2,41.9,30.12,NW,305,2.0,5.0,95,0.05,,,0.29,WeatherCatV1.13B119,2013-03-01 04:14:00,
2013-02-28 20:19:00,43.5,42.2,30.13,ESE,103,1.0,4.0,95,0.05,,,0.30,WeatherCatV1.13B119,2013-03-01 04:19:00,
2013-02-28 20:24:00,43.7,42.4,30.13,NW,314,0.0,2.0,95,0.05,,,0.30,WeatherCatV1.13B119,2013-03-01 04:24:00,
2013-02-28 20:29:00,44.0,42.7,30.12,SE,125,0.0,4.0,95,0.04,,,0.30,WeatherCatV1.13B119,2013-03-01 04:29:00,
2013-02-28 20:34:00,44.5,43.2,30.12,ESE,118,0.0,1.0,95,0.03,,,0.30,WeatherCatV1.13B119,2013-03-01 04:34:00,
2013-02-28 20:39:00,44.5,42.9,30.12,ENE,76,5.0,6.0,94,0.00,,,0.30,WeatherCatV1.13B119,2013-03-01 04:39:00,
2013-02-28 20:44:00,44.4,42.8,30.12,East,85,0.0,2.0,94,0.00,,,0.30,WeatherCatV1.13B119,2013-03-01 04:44:00,
2013-02-28 20:49:00,44.5,42.9,30.13,ENE,61,2.0,6.0,94,0.00,,,0.30,WeatherCatV1.13B119,2013-03-01 04:49:00,
2013-02-28 20:54:00,44.9,43.6,30.12,SSW,198,0.0,6.0,95,0.00,,,0.30,WeatherCatV1.13B119,2013-03-01 04:54:00,
2013-02-28 20:59:00,44.7,42.8,30.12,NNW,338,6.0,9.0,93,0.00,,,0.30,WeatherCatV1.13B119,2013-03-01 04:59:00,
2013-02-28 21:00:00,44.7,42.8,30.12,NW,326,6.0,10.0,93,0.00,,,0.30,WeatherCatV1.13B119,2013-03-01 05:00:00,
2013-02-28 21:05:00,44.6,42.7,30.12,NNW,340,0.0,4.0,93,0.00,,,0.30,WeatherCatV1.13B119,2013-03-01 05:05:00,
2013-02-28 21:10:00,44.7,43.1,30.12,East,84,2.0,5.0,94,0.00,,,0.30,WeatherCatV1.13B119,2013-03-01 05:10:00,
2013-02-28 21:15:00,45.1,43.5,30.12,ENE,77,0.0,1.0,94,0.00,,,0.30,WeatherCatV1.13B119,2013-03-01 05:15:00,
2013-02-28 21:20:00,45.6,44.0,30.12,NE,41,0.0,1.0,94,0.00,,,0.30,WeatherCatV1.13B119,2013-03-01 05:20:00,
2013-02-28 21:25:00,45.4,43.5,30.13,ENE,70,5.0,5.0,93,0.00,,,0.30,WeatherCatV1.13B119,2013-03-01 05:25:00,
2013-02-28 21:30:00,46.1,43.9,30.13,ENE,64,0.0,3.0,92,0.00,,,0.30,WeatherCatV1.13B119,2013-03-01 05:30:00,
2013-02-28 21:35:00,46.3,44.1,30.13,SE,133,0.0,5.0,92,0.00,,,0.30,WeatherCatV1.13B119,2013-03-01 05:35:00,
2013-02-28 21:40:00,46.5,44.3,30.13,ESE,117,0.0,4.0,92,0.00,,,0.30,WeatherCatV1.13B119,2013-03-01 05:40:00,
2013-02-28 21:45:00,46.4,44.2,30.13,ENE,70,2.0,3.0,92,0.00,,,0.30,WeatherCatV1.13B119,2013-03-01 05:45:00,
2013-02-28 21:50:00,46.6,44.4,30.14,SE,134,1.0,10.0,92,0.00,,,0.30,WeatherCatV1.13B119,2013-03-01 05:50:00,
2013-02-28 21:55:00,46.8,44.6,30.14,East,94,2.0,3.0,92,0.00,,,0.30,WeatherCatV1.13B119,2013-03-01 05:55:00,
2013-02-28 22:00:00,46.7,44.5,30.13,ESE,102,1.0,2.0,92,0.00,,,0.30,WeatherCatV1.13B119,2013-03-01 06:00:00,
2013-02-28 22:05:00,45.9,43.4,30.13,ESE,117,3.0,7.0,91,0.00,,,0.31,WeatherCatV1.13B119,2013-03-01 06:05:00,
2013-02-28 22:10:00,45.8,43.9,30.14,East,86,2.0,6.0,93,0.00,,,0.31,WeatherCatV1.13B119,2013-03-01 06:10:00,
2013-02-28 22:15:00,45.7,43.5,30.14,ENE,72,6.0,7.0,92,0.05,,,0.31,WeatherCatV1.13B119,2013-03-01 06:15:00,
2013-02-28 22:20:00,45.6,43.7,30.14,ENE,67,5.0,5.0,93,0.11,,,0.32,WeatherCatV1.13B119,2013-03-01 06:20:00,
2013-02-28 22:25:00,46.1,44.2,30.14,East,83,0.0,1.0,93,0.12,,,0.34,WeatherCatV1.13B119,2013-03-01 06:25:00,
2013-02-28 22:30:00,45.8,43.6,30.14,ENE,65,4.0,6.0,92,0.09,,,0.35,WeatherCatV1.13B119,2013-03-01 06:30:00,
2013-02-28 22:35:00,45.9,44.0,30.14,NW,316,1.0,2.0,93,0.09,,,0.35,WeatherCatV1.13B119,2013-03-01 06:35:00,
2013-02-28 22:40:00,45.5,43.6,30.14,NNW,344,0.0,2.0,93,0.11,,,0.36,WeatherCatV1.13B119,2013-03-01 06:40:00,
2013-02-28 22:45:00,45.8,44.2,30.14,ESE,109,6.0,7.0,94,0.12,,,0.37,WeatherCatV1.13B119,2013-03-01 06:45:00,
2013-02-28 22:50:00,46.0,44.1,30.14,SW,228,0.0,1.0,93,0.13,,,0.38,WeatherCatV1.13B119,2013-03-01 06:50:00,
2013-02-28 22:55:00,45.9,44.3,30.15,East,87,1.0,3.0,94,0.13,,,0.39,WeatherCatV1.13B119,2013-03-01 06:55:00,
2013-02-28 23:00:00,45.5,43.6,30.14,ESE,108,2.0,5.0,93,0.13,,,0.40,WeatherCatV1.13B119,2013-03-01 07:00:00,
2013-02-28 23:05:00,45.4,43.5,30.14,ESE,121,2.0,3.0,93,0.11,,,0.41,WeatherCatV1.13B119,2013-03-01 07:05:00,
2013-02-28 23:10:00,45.2,43.6,30.14,NW,322,2.0,4.0,94,0.07,,,0.42,WeatherCatV1.13B119,2013-03-01 07:10:00,
2013-02-28 23:15:00,45.2,43.9,30.15,NNW,345,0.0,2.0,95,0.08,,,0.43,WeatherCatV1.13B119,2013-03-01 07:15:00,
2013-02-28 23:20:00,45.6,44.3,30.14,East,79,0.0,1.0,95,0.09,,,0.43,WeatherCatV1.13B119,2013-03-01 07:20:00,
2013-02-28 23:25:00,45.7,44.1,30.14,SSE,156,3.0,4.0,94,0.11,,,0.44,WeatherCatV1.13B119,2013-03-01 07:25:00,
2013-02-28 23:30:00,45.7,44.1,30.14,East,92,1.0,2.0,94,0.09,,,0.45,WeatherCatV1.13B119,2013-03-01 07:30:00,
2013-02-28 23:35:00,45.4,43.8,30.14,ESE,117,0.0,5.0,94,0.08,,,0.45,WeatherCatV1.13B119,2013-03-01 07:35:00,
2013-02-28 23:40:00,45.4,43.8,30.14,NW,318,1.0,6.0,94,0.10,,,0.47,WeatherCatV1.13B119,2013-03-01 07:40:00,
2013-02-28 23:45:00,45.6,44.3,30.14,ENE,61,0.0,2.0,95,0.09,,,0.47,WeatherCatV1.13B119,2013-03-01 07:45:00,
2013-02-28 23:50:00,46.0,44.6,30.14,ESE,102,5.0,8.0,95,0.08,,,0.47,WeatherCatV1.13B119,2013-03-01 07:50:00,
2013-02-28 23:55:00,46.4,45.0,30.14,East,95,4.0,9.0,95,0.05,,,0.47,WeatherCatV1.13B119,2013-03-01 07:55:00,